This demonstration page uses our WeatherBlox Daily Observations layout. Learn more.

Left ArrowRight Arrow

39.92423, -83.80882

Hourly Observations for June 8, 2022

Temp ( °F °C ) Dew Point ( °F °C ) Humidity (%) Winds ( mph kmh ) Pressure ( in mb ) Visibility ( mi km ) Precip ( " mm )
12:56 am 00:56 Clear 61 16.1 61 16.1 100 100 Calm 29.94 1014 10 16 0.00 0.00
1:56 am 01:56 Clear 59 15 N/A N/A Calm 29.93 1014 10 16 0.00 0.00
2:56 am 02:56 Clear 59 15 N/A N/A Calm 29.94 1014 10 16 0.00 0.00
3:56 am 03:56 Clear 57 14 N/A N/A Calm 29.95 1014 10 16 0.00 0.00
4:56 am 04:56 Clear N/A N/A N/A NNW 3 6 N/A 10 16 0.01 0.25
5:56 am 05:56 Clear 55 13 N/A N/A N 3 6 29.96 1015 10 16 0.00 0.00
6:56 am 06:56 Sunny 55 13 N/A N/A Calm 29.96 1014 10 16 0.00 0.00
7:56 am 07:56 Sunny 61 16.1 58 14.4 90 90 ENE 6 9 29.97 1015 10 16 0.00 0.00
8:56 am 08:56 Sunny 65 18.3 57 13.9 76 76 ESE 6 9 29.96 1014 10 16 0.00 0.00
9:56 am 09:56 Sunny 69 20.6 64 17.8 84 84 SSE 3 6 29.96 1014 10 16 0.00 0.00
10:56 am 10:56 Sunny 72 22.2 63 17.2 73 73 SE 9 15 29.93 1014 10 16 0.00 0.00
11:56 am 11:56 Sunny 74 23.3 62 16.7 67 67 VRB 6 9 29.91 1013 10 16 0.00 0.00
12:56 pm 12:56 Partly Cloudy 74 23.3 63 17.2 69 69 SSE 9 15 29.89 1012 10 16 0.00 0.00
1:56 pm 13:56 Partly Cloudy 76 24.4 65 18.3 69 69 SSE 9 15 29.85 1011 10 16 0.00 0.00
2:56 pm 14:56 Mostly Sunny 77 25 66 18.9 69 69 SSE 10 17 29.81 1009 10 16 0.00 0.00
3:56 pm 15:56 Mostly Cloudy 78 25.6 67 19.4 69 69 SSE 12 19 29.77 1008 10 16 0.00 0.00
4:56 pm 16:56 Cloudy with Light Rain 73 22.8 73 22.8 100 100 S 5 7 29.70 1006 10 16 0.08 2.03
5:56 pm 17:56 Mostly Cloudy 73 23 N/A N/A S 15 24 29.71 1006 10 16 0.00 0.00
6:56 pm 18:56 Partly Cloudy 72 22 N/A N/A SW 13 20 29.70 1006 10 16 0.03 0.76
7:30 pm 19:30 Mostly Cloudy 72 22 N/A N/A SW 8 13 29.68 1005 10 16 0.00 0.00
7:56 pm 19:56 Partly Cloudy 72 22 N/A N/A WSW 8 13 29.70 1006 10 16 0.00 0.00
8:49 pm 20:49 Mostly Cloudy with Light Rain 72 22 N/A N/A NNW 17 28 29.68 1005 10 16 0.00 0.00
8:56 pm 20:56 Mostly Cloudy with Light Rain 68 20 N/A N/A NW 13 20 29.71 1006 10 16 0.00 0.00
9:00 pm 21:00 Mostly Cloudy with Light Rain 68 20 N/A N/A NW 10 17 29.69 1005 10 16 0.00 0.00
9:56 pm 21:56 Clear 66 19 N/A N/A WNW 13 20 29.72 1007 10 16 0.00 0.00
10:56 pm 22:56 Mostly Cloudy 64 18 N/A N/A WNW 13 20 29.75 1007 10 16 0.00 0.00
11:00 pm 23:00 Mostly Cloudy 64 18 N/A N/A WNW 15 24 29.75 1007 10 16 0.00 0.00
11:08 pm 23:08 Mostly Cloudy 64 18 N/A N/A NW 12 19 29.75 1007 10 16 0.04 1.02
11:15 pm 23:15 Cloudy 64 18 N/A N/A NW 12 19 29.75 1007 10 16 0.10 2.54
11:56 pm 23:56 Cloudy 63 17 N/A N/A WNW 13 20 29.78 1009 8 13 0.10 2.54

Powered by AerisWeather